Regional Weather Roundup
Issued by NWS

Home | Current Version | Previous Version | Text Only | Print | Product List | Glossary On
Versions: 1 2 3 4 5 6 7 8 9 10 11 12 13 14 15 16 17 18 19 20 21 22 23 24 25 26 27 28 29 30 31 32 33 34 35 36 37 38 39 40 41 42 43 44 45 46 47 48 49 50
000
ASUS43 KDMX 300907
RWRIA

WEATHER ROUNDUP FOR IOWA
NATIONAL WEATHER SERVICE DES MOINES IA
300 AM CST FRI JAN 30 2015

NOTE: "FAIR" INDICATES FEW OR NO CLOUDS BELOW 12,000 FEET WITH NO
SIGNIFICANT WEATHER AND/OR OBSTRUCTIONS TO VISIBILITY.

* - THESE STATIONS ARE NOT NWS STATIONS...THUS NOT UNDER NWS
QUALITY CONTROL.  THEY ALSO DO NOT REPORT WEATHER SUCH
AS PRECIPITATION OR FOG.

IAZ001>003-012>014-020>022-031>034-043>046-301000-
   NORTHWEST IOWA

CITY           SKY/WX    TMP DP  RH WIND       PRES   REMARKS
CARROLL *      CLEAR     18  14  86 NE6       30.53S WCI   9
CHEROKEE *     CLEAR     18  16  93 NE3       30.53S
DENISON *      CLEAR     19  16  86 NE5       30.52R WCI  13
LE MARS *      CLEAR     23  19  86 NE3       30.53S
ORANGE CITY *  PTCLDY    23  19  86 CALM      30.51S
SHELDON *      CLOUDY    19  18  93 NE6       30.50F WCI  11
SIOUX CITY     PTCLDY    17  14  88 W3        30.55R
STORM LAKE *   CLEAR     18  14  86 NE8       30.52S WCI   7
$$

IAZ055>058-069>071-079>083-090>094-301000-
   SOUTHWEST IOWA

CITY           SKY/WX    TMP DP  RH WIND       PRES   REMARKS
ATLANTIC *     CLEAR     19  18  93 CALM      30.54R
AUDUBON *      CLEAR     18  14  86 N5        30.52S WCI  11
CLARINDA *     CLEAR     21  18  86 N6        30.56F WCI  14
COUNCIL BLFS * CLEAR     21  19  93 N6        30.53S WCI  14
CRESTON *      CLEAR     21  18  86 N10       30.52R WCI  10
HARLAN  *      CLEAR     16  16 100 CALM      30.58R
LAMONI         CLEAR     22  18  85 N10       30.51R WCI  11
RED OAK *      CLEAR     19  18  93 CALM      30.55F
SHENANDOAH *   CLEAR     23  19  86 CALM      30.56F
$$

IAZ047>049-059>061-072>074-084-301000-
   CENTRAL IOWA

CITY           SKY/WX    TMP DP  RH WIND       PRES   REMARKS
AMES           CLEAR     18  12  77 N9        30.54S WCI   7
ANKENY *       CLEAR     19  14  79 N9        30.55F WCI   9
CHARITON *     CLOUDY    23  18  80 N17       30.52F WCI   9
DES MOINES     PTCLDY    21  14  74 NE6       30.54S WCI  13
GRINNELL*      CLEAR     19  16  86 NW10      30.53R WCI   8
KNOXVILLE *    CLOUDY    23  16  74 N12       30.53R WCI  12
MARSHALLTOWN   CLEAR     18  14  84 N12       30.52S WCI   5
PELLA *        MOCLDY    21  16  79 N9        30.55R WCI  11
PERRY *          N/A     19  16  86 N9        30.53F WCI   9
$$

IAZ004>006-015-016-023>025-035-036-301000-
   NORTH CENTRAL IOWA

CITY           SKY/WX    TMP DP  RH WIND       PRES   REMARKS
ALGONA *       CLEAR     16  12  86 N9        30.53F WCI   4
CLARION *      CLEAR     16  14  93 N12       30.52F WCI   3
ESTHERVILLE    CLEAR     13  11  92 N7        30.52R WCI   3
FORT DODGE *   CLEAR     18  10  73 CALM      30.54R
MASON CITY     CLEAR     14  10  84 N13       30.53F WCI   0
FOREST CITY *  CLEAR     16  10  79 N8        30.52S WCI   5
IOWA FALLS *     N/A     18  14  86 N10       30.52F WCI   6
$$

IAZ007>011-017>019-026>030-037>042-050>054-066-301000-
   NORTHEAST IOWA

CITY           SKY/WX    TMP DP  RH WIND       PRES   REMARKS
CEDAR RAPIDS   CLEAR     20  14  77 N10       30.49S WCI   9
CHARLES CITY * CLEAR     16   9  73 N12       30.52S WCI   3
CLINTON *      CLEAR     19  12  73 NW10      30.48S WCI   8
DECORAH *      CLEAR     14   7  73 N13       30.49R WCI   0
DUBUQUE        CLEAR     18   9  68 N9        30.45R WCI   7
MONTICELLO *   CLEAR     19  12  73 NW8       30.49R WCI   9
OELWEIN *      CLEAR     16  10  79 N10G17    30.51R WCI   3
WATERLOO       PTCLDY    16  10  77 N12       30.52R WCI   3
$$

IAZ064-065-067-068-078-301000-
   EAST CENTRAL IOWA

CITY           SKY/WX    TMP DP  RH WIND       PRES   REMARKS
DAVENPORT      CLEAR     20  12  71 NW10      30.47S WCI   9
IOWA CITY      CLEAR     22  14  71 NW8       30.51F WCI  12
MT. PLEASANT * PTCLDY    23  18  80 N10       30.50F WCI  12
MUSCATINE *    CLEAR     25  16  68 NW9       30.51F WCI  15
QUAD CITIES    CLEAR     23  15  71 NW7       30.48R WCI  15
$$

IAZ062-063-075>077-085>089-095>099-301000-
   SOUTHEAST IOWA

CITY           SKY/WX    TMP DP  RH WIND       PRES   REMARKS
BURLINGTON     CLEAR     25  17  72 N12       30.49F WCI  14
FAIRFIELD *    MOCLDY    23  18  80 NW8       30.52R WCI  14
FORT MADISON * CLEAR     23  19  86 N6        30.50F WCI  16
KEOKUK *       MOCLDY    25  18  74 N7        30.50S WCI  17
OSKALOOSA *      N/A     21  16  79 N12       30.53R WCI   9
CENTERVILLE *  CLOUDY    23  19  86 N10       30.53R WCI  12
OTTUMWA        PTCLDY    21  15  78 N15       30.52R WCI   8
WASHINGTON *   CLEAR     23  19  86 N10       30.50F WCI  12
$$

ABBREVIATIONS USED IN REMARKS
   TC - TEMPERATURES IN CELSIUS
  WCI - WIND CHILL INDEX
   HX - HEAT INDEX
  VSB - VISIBILITY
$$




USA.gov is the U.S. government's official web portal to all federal, state and local government web resources and services.